Change the Weather History Date:

Thursday, October 31, 2013

  Actual Average Record
Temperature  
Mean Temperature 53 °F 41 °F  
Max Temperature 59 °F 50 °F 77 °F (1950)
Min Temperature 47 °F 32 °F 17 °F (1925)
Degree Days  
Heating Degree Days 12 24  
Month to date heating degree days 546 586  
Since 1 July heating degree days 930 944  
Cooling Degree Days 0 0  
Month to date cooling degree days 0 2  
Year to date cooling degree days 343 291  
Growing Degree Days 2 (Base 50)    
Moisture  
Dew Point 52 °F    
Average Humidity 87    
Maximum Humidity 100    
Minimum Humidity 74    
Precipitation  
Precipitation 0.51 in 0.07 in 0.54 in (1932)
Month to date precipitation 3.79 2.61  
Year to date precipitation 27.45 24.31  
Snow  
Snow 0.00 in 0.00 in 0.30 in (1934)
Month to date snowfall T 0.4  
Since 1 July snowfall T 0.4  
Snow Depth 0.00 in    
Sea Level Pressure  
Sea Level Pressure 29.49 in    
Wind  
Wind Speed 4 mph (SE)    
Max Wind Speed 13 mph    
Max Gust Speed 18 mph    
Visibility 4 miles    
Events Rain    
T = Trace of Precipitation, MM = Missing Value Source: NWS Daily Summary

Daily Weather History Graph

Daily Weather History Graph

Search for Another Location

Airport or City:

Trip Planner

Search our weather history database for the weather conditions in past years. The results will help you decide how hot, cold, wet, or windy it might be!

Date:

Astronomy

Oct. 31, 2013 Rise Set
Actual Time 8:11 AM EDT 6:23 PM EDT
Civil Twilight 7:41 AM EDT 6:53 PM EDT
Nautical Twilight 7:06 AM EDT 7:28 PM EDT
Astronomical Twilight 6:32 AM EDT 8:02 PM EDT
Moon 4:52 AM EDT (10/31) 4:47 PM EDT (10/31)
Length of Visible Light 11h 12m
Length of Day
10h 11m
Waning Crescent, 10% of the Moon is Illuminated
Oct 31
Waning Crescent
Nov 3
New
Nov 10
First Quarter
Nov 17
Full
Nov 25
Last Quarter

Hourly Weather History & Observations

Time (EDT) Temp. Dew Point Humidity Pressure Visibility Wind Dir Wind Speed Gust Speed Precip Events Conditions
12:54 AM 50.0 °F 42.1 °F 74% 29.88 in 10.0 mi SSE 5.8 mph - N/A   Overcast
1:06 AM 50.0 °F 42.8 °F 76% 29.86 in 10.0 mi SE 6.9 mph - N/A   Overcast
1:54 AM 48.0 °F 45.0 °F 89% 29.85 in 5.0 mi SE 4.6 mph - 0.04 in Rain Rain
2:54 AM 48.0 °F 46.0 °F 93% 29.82 in 4.0 mi SSE 6.9 mph - 0.04 in Rain Light Rain
3:21 AM 48.2 °F 46.4 °F 93% 29.79 in 4.0 mi South 5.8 mph - 0.02 in Rain Light Rain
3:32 AM 48.2 °F 46.4 °F 93% 29.77 in 3.0 mi SSE 5.8 mph - 0.02 in Rain Light Rain
3:54 AM 48.0 °F 46.9 °F 96% 29.76 in 2.5 mi SE 4.6 mph - 0.02 in   Overcast
4:54 AM 48.0 °F 48.0 °F 100% 29.73 in 2.0 mi Calm Calm - N/A   Overcast
5:34 AM 48.2 °F 48.2 °F 100% 29.70 in 1.8 mi Calm Calm - N/A   Overcast
5:54 AM 48.9 °F 48.0 °F 97% 29.72 in 2.0 mi Calm Calm - N/A   Overcast
6:31 AM 48.2 °F 48.2 °F 100% 29.68 in 1.5 mi Calm Calm - 0.01 in Rain Light Rain
6:40 AM 48.2 °F 48.2 °F 100% 29.68 in 1.2 mi Calm Calm - 0.01 in Rain Light Rain
6:54 AM 50.0 °F 48.9 °F 96% 29.68 in 1.2 mi Calm Calm - 0.02 in Rain Light Rain
7:03 AM 48.2 °F 48.2 °F 100% 29.66 in 1.0 mi SSE 5.8 mph - 0.00 in   Overcast
7:19 AM 48.2 °F 48.2 °F 100% 29.66 in 1.2 mi South 3.5 mph - 0.00 in Rain Light Rain
7:27 AM 48.2 °F 48.2 °F 100% 29.65 in 1.5 mi South 4.6 mph - 0.00 in   Overcast
7:47 AM 50.0 °F 48.2 °F 94% 29.64 in 2.0 mi SSE 3.5 mph - 0.00 in   Overcast
7:54 AM 50.0 °F 48.9 °F 96% 29.65 in 2.5 mi SSE 5.8 mph - 0.00 in   Overcast
8:07 AM 50.0 °F 50.0 °F 100% 29.63 in 2.0 mi SSE 5.8 mph - N/A   Overcast
8:29 AM 50.0 °F 50.0 °F 100% 29.63 in 1.8 mi SSE 4.6 mph - N/A   Overcast
8:37 AM 50.0 °F 50.0 °F 100% 29.63 in 1.8 mi SSE 4.6 mph - N/A   Overcast
8:54 AM 50.0 °F 50.0 °F 100% 29.63 in 1.2 mi SSE 5.8 mph - N/A   Overcast
9:30 AM 50.0 °F 50.0 °F 100% 29.60 in 0.8 mi Calm Calm - N/A   Overcast
9:54 AM 50.0 °F 50.0 °F 100% 29.60 in 1.0 mi SE 3.5 mph - N/A   Overcast
10:54 AM 51.1 °F 51.1 °F 100% 29.57 in 0.8 mi East 3.5 mph - 0.01 in Rain Light Rain
11:09 AM 51.8 °F 51.8 °F 100% 29.55 in 1.0 mi Calm Calm - 0.00 in Rain Light Rain
11:18 AM 51.8 °F 51.8 °F 100% 29.55 in 0.8 mi Calm Calm - 0.00 in   Overcast
11:28 AM 51.8 °F 51.8 °F 100% 29.55 in 1.0 mi Calm Calm - 0.00 in Rain Light Rain
11:54 AM 52.0 °F 52.0 °F 100% 29.55 in 2.0 mi Calm Calm - 0.00 in Rain Light Rain
12:14 PM 53.6 °F 51.8 °F 94% 29.53 in 1.5 mi Calm Calm - 0.01 in Rain Light Rain
12:54 PM 53.1 °F 53.1 °F 100% 29.51 in 1.2 mi Calm Calm - 0.09 in Rain Heavy Rain
1:07 PM 53.6 °F 53.6 °F 100% 29.50 in 2.5 mi Calm Calm - 0.01 in Rain Light Rain
1:19 PM 53.6 °F 53.6 °F 100% 29.49 in 3.0 mi Calm Calm - 0.02 in Rain Light Rain
1:35 PM 55.4 °F 53.6 °F 94% 29.47 in 4.0 mi Calm Calm - 0.02 in Rain Light Rain
1:54 PM 55.0 °F 55.0 °F 100% 29.47 in 4.0 mi Calm Calm - 0.03 in Rain Light Rain
2:38 PM 55.4 °F 55.4 °F 100% 29.42 in 7.0 mi South 3.5 mph - 0.00 in Rain Light Rain
2:45 PM 57.2 °F 55.4 °F 94% 29.42 in 7.0 mi Calm Calm - 0.00 in Rain Light Rain
2:54 PM 57.0 °F 55.9 °F 96% 29.42 in 7.0 mi South 3.5 mph - 0.00 in Rain Light Rain
3:17 PM 57.2 °F 57.2 °F 100% 29.40 in 10.0 mi South 4.6 mph - 0.00 in Rain Light Rain
3:54 PM 59.0 °F 57.9 °F 96% 29.39 in 10.0 mi South 5.8 mph - 0.01 in Rain Light Rain
4:08 PM 59.0 °F 57.2 °F 94% 29.38 in 10.0 mi SSE 4.6 mph - 0.00 in Rain Light Rain
4:54 PM 59.0 °F 57.9 °F 96% 29.35 in 7.0 mi SSE 5.8 mph - 0.02 in Rain Light Rain
5:02 PM 59.0 °F 57.2 °F 94% 29.34 in 10.0 mi SSE 5.8 mph - 0.00 in Rain Light Rain
5:23 PM 59.0 °F 57.2 °F 94% 29.33 in 10.0 mi SSE 5.8 mph - 0.00 in   Overcast
5:52 PM 57.2 °F 57.2 °F 100% 29.32 in 8.0 mi SSE 3.5 mph - 0.01 in Rain Light Rain
5:54 PM 57.9 °F 57.9 °F 100% 29.33 in 8.0 mi SSE 3.5 mph - 0.01 in Rain Light Rain
6:20 PM 57.2 °F 57.2 °F 100% 29.30 in 8.0 mi ESE 3.5 mph - 0.01 in Rain Light Rain
6:41 PM 57.2 °F 57.2 °F 100% 29.28 in 4.0 mi ESE 4.6 mph - 0.02 in Rain Light Rain
6:52 PM 57.2 °F 55.4 °F 94% 29.28 in 3.0 mi East 3.5 mph - 0.02 in Rain Light Rain
6:54 PM 57.0 °F 55.9 °F 96% 29.28 in 3.0 mi East 4.6 mph - 0.02 in   Overcast
7:03 PM 55.4 °F 55.4 °F 100% 29.27 in 2.0 mi East 3.5 mph - 0.00 in Rain Light Rain
7:07 PM 55.4 °F 55.4 °F 100% 29.27 in 1.8 mi East 3.5 mph - 0.00 in Rain Light Rain
7:14 PM 55.4 °F 55.4 °F 100% 29.27 in 2.0 mi Calm Calm - 0.00 in Rain Light Rain
7:54 PM 55.0 °F 55.0 °F 100% 29.23 in 2.0 mi ESE 5.8 mph - 0.01 in Rain Light Rain
8:08 PM 55.4 °F 55.4 °F 100% 29.22 in 2.5 mi SE 5.8 mph - 0.02 in Rain Rain
8:22 PM 55.4 °F 55.4 °F 100% 29.20 in 2.5 mi ESE 4.6 mph - 0.05 in Rain Light Rain
8:29 PM 55.4 °F 55.4 °F 100% 29.19 in 4.0 mi ESE 3.5 mph - 0.06 in Rain Light Rain
8:54 PM 57.0 °F 57.0 °F 100% 29.17 in 5.0 mi SSE 10.4 mph - 0.06 in Rain Light Rain
9:54 PM 57.0 °F 57.0 °F 100% 29.12 in 4.0 mi South 8.1 mph - 0.07 in Rain Light Rain
10:54 PM 57.0 °F 57.0 °F 100% 29.07 in 4.0 mi SSE 8.1 mph - 0.04 in Rain Light Rain
11:54 PM 57.0 °F 55.9 °F 96% 29.02 in 10.0 mi SSE 6.9 mph - 0.02 in   Overcast